Regional Weather Roundup
Issued by NWS

Home | Current Version | Previous Version | Graphics & Text | Print | Product List | Glossary On
Versions: 1 2 3 4 5 6 7 8 9 10 11 12 13 14 15 16 17 18 19 20 21 22 23 24 25 26 27 28 29 30 31 32 33 34 35 36 37 38 39 40 41 42 43 44 45 46 47 48 49 50
000
ASUS43 KIND 240409
RWRIN

WEATHER ROUNDUP FOR INDIANA
NATIONAL WEATHER SERVICE INDIANAPOLIS IN
1200 AM EDT FRI MAR 24 2017

NOTE: "FAIR" INDICATES FEW OR NO CLOUDS BELOW 12,000 FEET WITH NO
SIGNIFICANT WEATHER AND/OR OBSTRUCTIONS TO VISIBILITY.

* - STATION DOES NOT REPORT WEATHER SUCH AS PRECIPITATION OR FOG.

+ - STATION NOT QUALITY CONTROLLED BY THE NATIONAL WEATHER SERVICE.
    USE DATA WITH CAUTION...ESPECIALLY DEWPOINT AND RELATIVE
    HUMIDITY OBSERVATIONS.

INZ001>003-010>013-019-020-240500-
NORTHWEST INDIANA

CITY           SKY/WX    TMP DP  RH WIND       PRES   REMARKS
GARY /AIRPORT/ PTCLDY    50  29  43 S7        30.03S
KNOX *+        MOCLDY    46  14  27 S16       30.04F
LA PORTE +     MOCLDY    46  35  65 S6        30.06F
MICHIGAN CITY+ CLOUDY    46  32  57 S8G17     30.05S
MONTICELLO +   CLOUDY    50  31  47 S10G18    30.05F
RENSSELAER +   PTCLDY    50  30  46 S16       30.04F
VALPARAISO     CLOUDY    48  35  60 SE7       30.05S

$$

LMZ046-743>745-240500-
SOUTHERN LAKE MICHIGAN

STATION/POSITION TIME  TEMP    WIND        PRES    WAVE
                       AIR SEA DIR/SP/G            HT
                 (UTC) (F)     (DEG/KT/KT) (MB)    (FT)
BURNS HARBOR     0340   50     180/ 15/ 23 1017.3R
MICHIGAN CITY    0340   50     150/ 17/ 23   N/A

$$

INZ004-005-014>016-021>024-240500-
NORTH CENTRAL INDIANA

CITY           SKY/WX    TMP DP  RH WIND       PRES   REMARKS
GOSHEN         CLOUDY    47  33  58 S7        30.08F
LOGANSPORT +   CLOUDY    46  34  61 S12       30.08F
PERU/GRISSOM   CLOUDY    49  35  59 SE12      30.07F
ROCHESTER +    CLOUDY    50  34  53 S13G20    30.07F
SOUTH BEND     CLOUDY    45  34  65 S9        30.07R
WARSAW +       CLOUDY    46  34  61 S9G16     30.05F

$$

INZ006>009-017-018-025>027-240500-
NORTHEAST INDIANA

CITY           SKY/WX    TMP DP  RH WIND       PRES   REMARKS
ANGOLA *+      CLOUDY    41  34  75 SE14      30.08F
AUBURN +       LGT RAIN  43  36  75 E6        30.13S
FORT WAYNE     LGT RAIN  46  36  68 S8        30.12F
HUNTINGTON +   CLOUDY    45  36  70 S7        30.11F
KENDALLVILLE + LGT RAIN  42  35  76 S14       30.08F

$$

INZ028-029-035-036-043>045-051>053-240500-
WEST CENTRAL INDIANA

CITY           SKY/WX    TMP DP  RH WIND       PRES   REMARKS
CRAWFORDSVL +  CLOUDY    47  32  55 S12       30.10F
GREENCASTLE +  CLOUDY    50  32  50 S10       30.12F
LAFAYETTE      CLOUDY    51  32  48 S8        30.07F
TERRE HAUTE    CLEAR     50  34  54 S9        30.11F

$$

INZ030>032-037>040-046>048-054>057-064-065-240500-
CENTRAL INDIANA

CITY           SKY/WX    TMP DP  RH WIND       PRES   REMARKS
CP ATTERBURY + CLOUDY    50  32  50 S6        30.16S
FISHERS *+     MOCLDY    48  37  66 S7        30.14F
FRANKFORT +    MOCLDY    50  35  56 S8G16     30.11F
GREENWOOD *+   MOCLDY    51  32  48 S9        30.15F
INDIANAPOLIS   PTCLDY    50  30  46 SE10      30.13F
-EAGLE CREEK   MOCLDY    51  29  42 S7        30.13S
KOKOMO +       CLOUDY    49  35  58 S14       30.11F
MARION +       CLOUDY    47  37  66 S10       30.14F
MT COMFORT *+  CLOUDY    50  34  53 S9        30.13F
SHELBYVILLE    MOCLDY    52  34  50 SE10      30.15S
ZIONSVILLE +   PTCLDY    50  32  50 S9G16     30.14S

$$

INZ033-034-041-042-049-050-058-059-240500-
EAST CENTRAL INDIANA

CITY           SKY/WX    TMP DP  RH WIND       PRES   REMARKS
MUNCIE         CLOUDY    53  33  46 S9        30.15S
RICHMOND +     MOCLDY    46  34  61 S9        30.19R

$$

INZ060-061-067>069-081>083-085>088-240500-
SOUTHWEST INDIANA

CITY           SKY/WX    TMP DP  RH WIND       PRES   REMARKS
EVANSVILLE     CLEAR     50  40  68 CALM      30.14F
HUNTINGBURG *+ CLEAR     56  42  59 S8        30.15F
WASHINGTON +   CLEAR     46  37  69 MISG      30.13F

$$

INZ062-063-066-070>080-084-089>092-240500-
SOUTH CENTRAL AND SOUTHEAST INDIANA

CITY           SKY/WX    TMP DP  RH WIND       PRES   REMARKS
BEDFORD +      CLEAR     52  36  54 SE7       30.16S
BLOOMINGTON    PTCLDY    51  32  48 S7        30.14F
MADISON *+     CLEAR     52  32  46 SE3       30.21F
NORTH VERNON + CLEAR     55  32  41 SE9       30.18F
SEYMOUR +      CLEAR     54  36  50 S9        30.16F

$$





USA.gov is the U.S. government's official web portal to all federal, state and local government web resources and services.